• In Uzbekistan
  • List of Countries
  • For 7 days
  • Water Temperature
  • Satellite Maps
  • Weather Map
  • Weather Widgets
  • user-avatar
    Login

    Hourly Weather Paralia

    Today, 19 August, Saturday

    Time Temperature Precipitation Wind Pressure Humidity
    00:00 +26°C° 0 mm 2 mps 748 mmHg 40%
    01:00 +26°C° 0 mm 2 mps 748 mmHg 40%
    02:00 +26°C° 0 mm 2 mps 748 mmHg 41%
    03:00 +25°C° 0 mm 2 mps 748 mmHg 41%
    04:00 +25°C° 0 mm 2 mps 748 mmHg 42%
    05:00 +27°C° 0 mm 2 mps 748 mmHg 39%
    06:00 +28°C° 0 mm 2 mps 748 mmHg 37%
    07:00 +30°C° 0 mm 1 mps 749 mmHg 35%
    08:00 +32°C° 0 mm 2 mps 749 mmHg 31%
    09:00 +34°C° 0 mm 2 mps 749 mmHg 27%
    10:00 +36°C° 0 mm 2 mps 749 mmHg 24%
    11:00 +37°C° 0 mm 2 mps 749 mmHg 23%
    12:00 +37°C° 0 mm 3 mps 749 mmHg 22%
    13:00 +38°C° 0 mm 3 mps 748 mmHg 21%
    14:00 +37°C° 0 mm 3 mps 748 mmHg 23%
    15:00 +36°C° 0 mm 3 mps 748 mmHg 24%
    16:00 +35°C° 0 mm 4 mps 748 mmHg 25%
    17:00 +33°C° 0 mm 3 mps 748 mmHg 29%
    18:00 +30°C° 0 mm 2 mps 748 mmHg 34%
    19:00 +29°C° 0 mm 2 mps 748 mmHg 38%
    20:00 +28°C° 0 mm 2 mps 748 mmHg 38%
    21:00 +27°C° 0 mm 1 mps 748 mmHg 39%
    22:00 +27°C° 0 mm 1 mps 748 mmHg 39%
    23:00 +26°C° 0 mm 1 mps 748 mmHg 39%

    Tomorrow, 20 August, Sunday

    Time Temperature Precipitation Wind Pressure Humidity
    00:00 +26°C° 0 mm 1 mps 748 mmHg 39%
    01:00 +26°C° 0 mm 1 mps 748 mmHg 39%
    02:00 +25°C° 0 mm 1 mps 748 mmHg 38%
    03:00 +25°C° 0 mm 1 mps 747 mmHg 38%
    04:00 +25°C° 0 mm 1 mps 747 mmHg 37%
    05:00 +27°C° 0 mm 1 mps 747 mmHg 35%
    06:00 +28°C° 0 mm 1 mps 747 mmHg 33%
    07:00 +30°C° 0 mm 1 mps 747 mmHg 31%
    08:00 +32°C° 0 mm 1 mps 747 mmHg 28%
    09:00 +34°C° 0 mm 1 mps 747 mmHg 25%
    10:00 +36°C° 0 mm 1 mps 747 mmHg 22%
    11:00 +37°C° 0 mm 2 mps 747 mmHg 22%
    12:00 +37°C° 0 mm 3 mps 747 mmHg 21%
    13:00 +37°C° 0 mm 3 mps 746 mmHg 21%
    14:00 +37°C° 0 mm 3 mps 746 mmHg 22%
    15:00 +36°C° 0 mm 3 mps 746 mmHg 24%
    16:00 +35°C° 0 mm 3 mps 746 mmHg 26%
    17:00 +32°C° 0 mm 2 mps 746 mmHg 32%
    18:00 +30°C° 0 mm 2 mps 746 mmHg 37%
    19:00 +28°C° 0 mm 1 mps 746 mmHg 43%
    20:00 +28°C° 0 mm 1 mps 746 mmHg 46%
    21:00 +27°C° 0 mm 1 mps 746 mmHg 49%
    22:00 +26°C° 0 mm 1 mps 746 mmHg 53%
    23:00 +26°C° 0 mm 1 mps 746 mmHg 54%

    Day after tomorrow, 21 August, Monday

    Time Temperature Precipitation Wind Pressure Humidity
    00:00 +25°C° 0 mm 1 mps 745 mmHg 56%
    01:00 +25°C° 0 mm 1 mps 745 mmHg 57%
    02:00 +25°C° 0 mm 1 mps 745 mmHg 58%
    03:00 +25°C° 0 mm 1 mps 745 mmHg 59%
    04:00 +25°C° 0 mm 1 mps 744 mmHg 59%
    05:00 +26°C° 0.1 mm 1 mps 745 mmHg 56%
    06:00 +25°C° 0.1 mm 0 mps 745 mmHg 53%
    07:00 +27°C° 0.1 mm 0 mps 745 mmHg 49%
    08:00 +30°C° 0.1 mm 1 mps 745 mmHg 43%
    09:00 +32°C° 0.1 mm 1 mps 745 mmHg 37%
    10:00 +34°C° 0.1 mm 1 mps 745 mmHg 31%
    11:00 +35°C° 0.1 mm 2 mps 745 mmHg 31%
    12:00 +35°C° 0.1 mm 2 mps 745 mmHg 30%
    13:00 +36°C° 0.1 mm 3 mps 745 mmHg 30%
    14:00 +35°C° 0.2 mm 3 mps 745 mmHg 32%
    15:00 +34°C° 0.2 mm 3 mps 744 mmHg 35%
    16:00 +34°C° 0.2 mm 3 mps 744 mmHg 38%
    17:00 +31°C° 0 mm 2 mps 744 mmHg 44%
    18:00 +29°C° 0 mm 2 mps 745 mmHg 51%
    19:00 +27°C° 0 mm 1 mps 745 mmHg 58%
    20:00 +26°C° 0 mm 1 mps 745 mmHg 61%
    21:00 +26°C° 0 mm 1 mps 745 mmHg 64%
    22:00 +23°C° 0 mm 0 mps 746 mmHg 67%
    23:00 +23°C° 0 mm 0 mps 746 mmHg 67%

    22 August, Tuesday

    Time Temperature Precipitation Wind Pressure Humidity
    00:00 +23°C° 0 mm 0 mps 746 mmHg 68%
    01:00 +22°C° 0 mm 0 mps 746 mmHg 68%
    02:00 +24°C° 0 mm 1 mps 746 mmHg 68%
    03:00 +24°C° 0 mm 1 mps 746 mmHg 68%
    04:00 +24°C° 0 mm 1 mps 746 mmHg 68%
    05:00 +25°C° 0 mm 1 mps 746 mmHg 63%
    06:00 +27°C° 0 mm 1 mps 746 mmHg 57%
    07:00 +28°C° 0 mm 1 mps 746 mmHg 52%
    08:00 +30°C° 0 mm 1 mps 747 mmHg 46%
    09:00 +32°C° 0 mm 1 mps 747 mmHg 41%
    10:00 +34°C° 0 mm 2 mps 747 mmHg 35%
    11:00 +35°C° 0 mm 2 mps 747 mmHg 34%
    12:00 +35°C° 0 mm 2 mps 747 mmHg 33%
    13:00 +35°C° 0 mm 3 mps 746 mmHg 32%
    14:00 +34°C° 0 mm 3 mps 746 mmHg 34%
    15:00 +34°C° 0 mm 3 mps 746 mmHg 36%
    16:00 +33°C° 0 mm 3 mps 746 mmHg 38%
    17:00 +30°C° 0 mm 2 mps 746 mmHg 43%
    18:00 +29°C° 0 mm 2 mps 746 mmHg 48%
    19:00 +27°C° 0 mm 1 mps 747 mmHg 53%
    20:00 +27°C° 0 mm 1 mps 747 mmHg 53%
    21:00 +26°C° 0 mm 1 mps 747 mmHg 53%
    22:00 +25°C° 0 mm 1 mps 748 mmHg 52%
    23:00 +25°C° 0 mm 1 mps 748 mmHg 52%

    23 August, Wednesday

    Time Temperature Precipitation Wind Pressure Humidity
    00:00 +25°C° 0 mm 1 mps 748 mmHg 51%
    01:00 +24°C° 0 mm 1 mps 748 mmHg 51%
    02:00 +24°C° 0 mm 1 mps 748 mmHg 51%
    03:00 +24°C° 0 mm 1 mps 748 mmHg 52%
    04:00 +23°C° 0 mm 1 mps 748 mmHg 52%
    05:00 +25°C° 0 mm 1 mps 748 mmHg 48%
    06:00 +26°C° 0 mm 1 mps 749 mmHg 44%
    07:00 +27°C° 0 mm 1 mps 749 mmHg 40%
    08:00 +29°C° 0 mm 1 mps 749 mmHg 34%
    09:00 +31°C° 0 mm 2 mps 749 mmHg 28%
    10:00 +34°C° 0 mm 2 mps 750 mmHg 22%
    11:00 +34°C° 0 mm 2 mps 749 mmHg 22%
    12:00 +35°C° 0 mm 2 mps 749 mmHg 22%
    13:00 +35°C° 0 mm 3 mps 749 mmHg 21%
    14:00 +35°C° 0 mm 3 mps 749 mmHg 24%
    15:00 +34°C° 0 mm 3 mps 749 mmHg 26%
    16:00 +34°C° 0 mm 3 mps 749 mmHg 28%
    17:00 +31°C° 0 mm 2 mps 749 mmHg 35%
    18:00 +28°C° 0 mm 2 mps 749 mmHg 43%
    19:00 +26°C° 0 mm 1 mps 749 mmHg 50%
    20:00 +26°C° 0 mm 1 mps 750 mmHg 53%
    21:00 +25°C° 0 mm 1 mps 750 mmHg 55%
    22:00 +23°C° 0 mm 0 mps 750 mmHg 58%
    23:00 +24°C° 0 mm 1 mps 750 mmHg 58%

    24 August, Thursday

    Time Temperature Precipitation Wind Pressure Humidity
    00:00 +24°C° 0 mm 1 mps 750 mmHg 58%
    01:00 +24°C° 0 mm 1 mps 749 mmHg 58%
    02:00 +24°C° 0 mm 1 mps 749 mmHg 57%
    03:00 +23°C° 0 mm 1 mps 749 mmHg 56%
    04:00 +23°C° 0 mm 1 mps 749 mmHg 55%
    05:00 +25°C° 0 mm 1 mps 750 mmHg 50%
    06:00 +26°C° 0 mm 1 mps 750 mmHg 44%
    07:00 +28°C° 0 mm 2 mps 750 mmHg 39%
    08:00 +30°C° 0 mm 2 mps 750 mmHg 33%
    09:00 +32°C° 0 mm 2 mps 750 mmHg 27%
    10:00 +35°C° 0 mm 2 mps 751 mmHg 21%
    11:00 +35°C° 0 mm 2 mps 750 mmHg 20%
    12:00 +36°C° 0 mm 3 mps 750 mmHg 19%
    13:00 +37°C° 0 mm 3 mps 750 mmHg 19%
    14:00 +36°C° 0 mm 3 mps 750 mmHg 20%
    15:00 +36°C° 0 mm 3 mps 750 mmHg 22%
    16:00 +35°C° 0 mm 3 mps 750 mmHg 23%
    17:00 +33°C° 0 mm 3 mps 750 mmHg 30%
    18:00 +30°C° 0 mm 2 mps 750 mmHg 37%
    19:00 +27°C° 0 mm 2 mps 750 mmHg 43%
    20:00 +27°C° 0 mm 2 mps 750 mmHg 44%
    21:00 +26°C° 0 mm 2 mps 751 mmHg 44%
    22:00 +26°C° 0 mm 2 mps 751 mmHg 45%
    23:00 +25°C° 0 mm 2 mps 751 mmHg 44%
    Show more